Regional Weather Roundup
Issued by NWS Charleston, WV

Home | Current Version | Previous Version | Graphics & Text | Print | Product List | Glossary On
Versions: 1 2 3 4 5 6 7 8 9 10 11 12 13 14 15 16 17 18 19 20 21 22 23 24 25 26 27 28 29 30 31 32 33 34 35 36 37 38 39 40 41 42 43 44 45 46 47 48
000
ASUS41 KRLX 020310
RWRRLX
West Virginia Regional Weather Roundup
National Weather Service Charleston WV
1100 PM EDT WED OCT 01 2014

Note: "fair" indicates few or no clouds below 12,000 feet with no
significant weather and/or obstructions to visibility.

WVZ003-020400-
Northern Panhandle of West Virginia

CITY           SKY/WX    TMP DP  RH WIND       PRES   REMARKS
WHEELING       CLEAR     57  55  93 E6        30.06R
$$

WVZ009-020400-
Northwest West Virginia

CITY           SKY/WX    TMP DP  RH WIND       PRES   REMARKS
PARKERSBURG    CLEAR     55  52  89 CALM      30.07S
$$

WVZ006-020400-
Western West Virginia

CITY           SKY/WX    TMP DP  RH WIND       PRES   REMARKS
HUNTINGTON     CLEAR     61  60  97 E3        30.03S FOG
$$

WVZ015-020400-
West Central West Virginia

CITY           SKY/WX    TMP DP  RH WIND       PRES   REMARKS
CHARLESTON     PTCLDY    57  57 100 CALM      30.06R FOG
$$

WVZ031-020400-
North Central West Virginia

CITY           SKY/WX    TMP DP  RH WIND       PRES   REMARKS
CLARKSBURG     FOG       54  53  97 CALM      30.07R VSB 1/4
MORGANTOWN     CLEAR     58  54  86 CALM      30.08R FOG
$$

WVZ035-042-045-020400-
South Central West Virginia

CITY           SKY/WX    TMP DP  RH WIND       PRES   REMARKS
BECKLEY        CLEAR     57  52  83 S3        30.12R
BLUEFIELD      CLEAR     62  52  69 W3        30.14R
LEWISBURG      CLEAR     56  52  84 CALM      30.11R
$$

WVZ047-020400-
Northern Mountains of West Virginia

CITY           SKY/WX    TMP DP  RH WIND       PRES   REMARKS
ELKINS         FOG       48  48 100 CALM      30.10S VSB 3/4
$$

WVZ052-020400-
Eastern Panhandle of West Virginia

CITY           SKY/WX    TMP DP  RH WIND       PRES   REMARKS
MARTINSBURG    PTCLDY    59  55  87 CALM      30.08S FOG
PETERSBURG     CLOUDY   N/A N/A N/A CALM      30.09S HAZE
$$


USA.gov is the U.S. government's official web portal to all federal, state and local government web resources and services.